Espaço - Ciências - Fenômenos Naturais
Meteógrafos Informações Meteorológicas em tempo real

Aeroporto Internacional de Campo Grande

Histórico do Tempo
Temperatura atual: 14 graus 57 F    Umidade relativa: 100 %
Velocidade do vento: 10 nós 18 Km/h    Direção: 250 graus WSW
Ajuste do altímetro ..: 1019 HPA
Visibilidade: Ótima    Tempo presente: Parcialmente Nublado

Observação
Nuvens esparsas a 300 Pés., Céu nublado a 500 Pés.

Data Hora BRTTempo°CUmidadePressãoVentoVisib.
24/05 - 08:56   Parcialmente Nublado 14° 100% 1019 Oeste-sudoeste/18 km/h OK
24/05 - 07:56   Névoa úmida 14° 100% 1018 Oeste-sudoeste/19 km/h 3500
24/05 - 06:56   Não Disponível ND° ND% ND Oeste-sudoeste/14 km/h 1500
24/05 - 05:56   Névoa úmida 14° 100% 1017 Oeste/18 km/h 1000
24/05 - 04:56   Névoa úmida 15° 100% 1017 Oeste-sudoeste/19 km/h 3000
24/05 - 03:56   Névoa úmida 15° 100% 1017 Oeste/14 km/h 5000
24/05 - 02:56   Nublado 16° 93% 1017 Oeste/10 km/h 8000
24/05 - 01:56   Nublado 16° 100% 1018 Oeste/9 km/h 8000
24/05 - 00:56   Muitas Nuvens 16° 100% 1018 Oeste-sudoeste/7 km/h 8000
23/05 - 23:56   Muitas Nuvens 16° 100% 1018 Oeste-sudoeste/14 km/h 8000
23/05 - 22:56   Muitas Nuvens 16° 100% 1018 Sudoeste/16 km/h 8000
23/05 - 21:56   Névoa úmida 16° 100% 1017 Sudoeste/18 km/h 5000
23/05 - 20:56   Chuvisco fraco 17° 100% 1017 Oeste-sudoeste/16 km/h 2800
23/05 - 19:56   Chuvisco fraco 18° 100% 1016 Oeste-sudoeste/18 km/h 3000
23/05 - 18:56   Chuvisco fraco 20° 93% 1015 Oeste/14 km/h 2500
23/05 - 17:56   Chuvisco fraco 20° 93% 1015 Oeste/19 km/h 2500
23/05 - 16:56   Muitas Nuvens 23° 83% 1014 Oeste-noroeste/19 km/h OK
23/05 - 15:56   Parcialmente Nublado 23° 83% 1014 Oeste-noroeste/18 km/h OK
23/05 - 14:56   Muitas Nuvens 24° 78% 1015 Oeste-noroeste/21 km/h OK
23/05 - 13:56   Parcialmente Nublado 25° 73% 1016 Oeste-noroeste/19 km/h OK
23/05 - 12:56   Parcialmente Nublado 24° 78% 1016 Oeste-noroeste/18 km/h OK
23/05 - 11:56   Parcialmente Nublado 24° 78% 1016 Noroeste/10 km/h OK
23/05 - 10:56   Parcialmente Nublado 23° 83% 1017 Noroeste/9 km/h OK
23/05 - 09:56   Muitas Nuvens 23° 83% 1016 Norte/5 km/h OK


Apolo11.com - Todos os direitos reservados - 2000 - 2019
Política de Privacidade   |     Termo de Uso e Licenciamento   |  -   Entre em Contato

"Política é a guerra sem sangue enquanto a guerra é a política com sangue" - Mao Tsé-Tung